Temperature
18 18 19 20 16 13 15 16 17 18 19 21 20 20 20 20 20 21 22 22 22 22 20 18 16 16 15 16 15 15 14 14 13 13 12 11 12 12 12 12 12 12 12 12 13 13 13 13 13
18 18 19 18 14 14 15 16 18 19 20 20 20 21 20 20 21 21 22 22 22 21 20 19 17 16 16 16 15 15 14 14 13 13 12 12 12 12 12 12 12 12 12 13 13 13 13 13 13
17 18 18 13 13 14 16 17 18 18 20 20 20 20 20 20 21 21 22 22 22 21 20 19 18 17 17 16 15 15 15 14 14 13 12 12 12 12 12 13 12 12 12 13 14 14 14 14 14
17 17 16 13 14 13 15 17 17 17 20 20 21 20 21 21 21 21 21 22 22 21 20 19 18 18 17 16 16 16 15 15 14 14 12 12 13 13 13 13 12 12 13 14 14 14 14 14 14
16 16 14 13 13 14 14 16 18 17 18 20 20 20 21 21 21 21 21 21 21 20 20 19 18 18 17 17 16 16 15 15 15 14 13 12 13 13 13 13 13 13 13 13 13 14 14 14 14
16 13 12 12 13 14 14 17 18 17 18 20 20 20 21 21 21 21 21 21 20 19 19 19 19 18 18 17 16 16 15 15 15 14 13 13 13 13 13 13 13 13 13 13 13 13 14 14 14
14 11 11 12 13 13 15 17 18 17 18 20 21 20 21 21 21 20 20 20 19 18 18 19 19 18 18 16 16 15 15 15 14 14 13 13 13 13 13 13 13 13 13 13 13 13 13 13 13
14 11 12 11 13 13 16 18 19 19 19 20 20 20 21 21 21 21 20 19 18 18 18 18 18 18 18 17 16 15 15 14 14 13 14 14 14 14 14 13 14 14 14 13 13 13 13 13 12
13 10 11 11 12 14 16 17 18 19 19 20 20 21 21 21 21 21 20 19 19 18 18 17 17 18 18 17 16 15 14 14 13 13 14 14 14 14 14 14 14 14 13 13 13 13 13 12 12
12 10 11 12 13 14 15 16 17 18 18 19 20 20 21 21 21 21 21 21 20 19 18 17 17 17 17 17 16 15 14 14 13 13 14 14 14 14 14 14 13 13 13 12 12 12 12 12 12
10 10 12 13 15 15 15 15 16 17 16 18 19 20 20 21 21 21 21 20 20 20 19 18 18 17 17 16 16 15 14 13 13 13 14 14 14 14 13 13 13 13 12 12 12 12 12 12 12
10 10 12 13 14 14 14 14 15 16 17 18 18 18 19 20 21 21 21 20 20 20 19 19 18 17 17 16 16 15 14 13 13 13 13 13 13 13 13 12 12 12 12 12 12 12 12 11 12
10 10 12 13 13 14 14 13 14 14 15 16 17 18 18 19 20 20 20 20 20 20 20 19 18 17 17 16 15 14 14 13 13 12 12 12 12 12 12 11 11 11 11 11 11 11 12 12 12
10 10 11 12 12 13 13 13 13 14 16 16 17 17 18 19 20 20 20 20 20 20 20 20 19 18 17 16 15 14 14 13 13 12 12 12 12 12 11 11 11 11 11 11 11 12 12 12 12
10 9 9 10 12 12 13 12 12 15 16 16 16 17 18 19 19 20 20 20 20 20 20 20 20 18 17 16 15 14 14 13 13 12 12 12 12 11 11 11 11 11 11 12 12 12 12 12 11
9 9 8 10 11 12 12 11 13 15 16 16 16 17 18 19 19 19 20 20 20 20 21 21 20 19 17 15 14 14 14 13 13 12 12 12 12 11 11 11 11 11 12 11 11 11 11 11 10
8 8 8 9 11 11 11 11 13 15 15 15 16 17 17 18 19 19 19 19 20 20 20 20 20 18 17 15 14 14 14 13 13 12 12 12 11 11 11 11 11 11 11 11 10 10 9 9 9
8 8 9 10 11 10 10 10 11 13 14 14 15 15 16 17 18 19 19 19 19 20 20 20 19 17 16 15 14 14 14 13 13 12 12 12 11 11 11 11 11 11 10 10 10 9 8 8 8
8 8 8 9 10 10 9 10 10 11 12 12 13 14 15 16 18 18 18 19 19 19 19 19 18 17 16 15 14 13 13 13 12 12 12 11 11 11 11 11 11 10 10 10 9 8 8 7 7
7 7 7 8 10 10 9 9 10 10 11 12 13 13 15 16 17 18 18 18 18 18 18 18 17 16 16 14 13 13 13 12 12 12 11 11 11 11 11 10 10 10 9 9 8 7 7 6 6
6 6 6 7 8 8 8 9 9 10 12 13 13 14 14 15 17 18 18 18 17 17 17 17 16 15 14 14 13 13 12 12 11 11 11 11 11 11 10 10 10 9 9 8 8 7 6 5 5
6 6 7 7 6 5 7 7 8 10 10 11 12 13 14 16 17 18 18 17 17 16 16 16 15 14 14 13 13 13 12 12 11 11 11 11 11 10 10 9 9 9 8 7 7 6 5 4 4
5 7 7 7 6 6 6 6 8 9 9 10 11 13 15 16 17 18 18 18 17 16 15 15 14 14 13 13 13 12 12 12 11 11 11 11 10 10 9 9 8 8 7 7 6 5 4 4 3
7 7 7 6 6 6 7 6 7 8 9 10 11 14 16 17 17 17 18 17 16 15 14 14 13 12 12 13 12 12 11 11 11 11 11 11 10 9 9 8 8 7 6 6 5 4 4 3 3
6 5 6 6 6 6 7 7 8 8 10 11 12 14 16 17 16 16 16 16 15 14 14 13 12 12 12 12 12 11 11 11 11 11 11 10 10 9 8 7 7 6 6 5 4 4 3 3 3
5 6 5 6 6 6 7 7 8 10 10 12 13 15 15 16 16 15 15 16 15 15 13 12 12 12 12 11 11 11 11 11 11 11 10 9 9 8 7 7 6 5 5 4 4 3 3 3 2
5 5 6 6 6 6 6 7 8 10 9 10 11 13 13 14 15 15 14 14 15 14 13 12 12 12 11 11 11 11 11 11 10 10 9 9 8 7 7 6 5 5 4 4 3 3 2 2 2
6 5 5 5 5 6 6 6 8 10 10 10 10 10 12 13 13 13 13 13 13 13 12 12 12 11 11 11 11 11 10 10 10 9 9 8 7 7 6 5 5 4 3 3 2 2 2 2 1
5 5 5 5 5 4 5 7 9 10 10 10 10 11 12 12 12 12 11 12 13 12 12 11 11 11 11 11 11 11 10 10 9 8 8 7 6 6 5 5 4 3 3 2 2 1 1 1 1
6 6 5 5 5 4 5 7 11 10 9 10 10 10 10 10 10 9 9 11 12 12 12 11 11 11 11 11 10 10 10 9 8 8 7 6 6 5 5 4 3 2 2 1 1 1 1 1 0
Wind_Speed
15 10 3 5 6 4 3 5 4 5 4 2 2 4 4 5 6 4 0 9 6 9 14 16 18 19 18 16 14 12 11 10 9 9 8 7 6 6 6 5 5 4 4 5 5 5 6 5 5
8 4 6 5 4 1 6 6 4 5 5 5 1 3 3 4 3 1 3 7 6 10 14 14 18 19 18 16 14 13 11 10 10 9 8 7 7 7 7 7 6 4 3 3 3 4 5 4 4
5 5 5 4 5 7 6 5 4 7 8 4 0 3 3 4 2 3 4 9 8 8 12 14 18 18 17 17 15 13 11 10 10 8 4 3 7 8 8 9 7 6 4 2 2 2 2 3 4
4 5 5 3 8 8 6 6 5 9 8 4 2 1 2 3 2 2 6 11 11 9 11 14 17 16 17 16 15 13 12 10 9 8 4 2 2 7 9 8 7 7 5 2 1 1 3 4 5
4 4 1 4 8 6 7 6 4 6 6 4 2 2 4 1 3 3 9 10 11 9 9 13 17 17 17 16 15 13 12 10 9 9 7 3 2 2 7 7 7 6 4 1 1 3 5 6 8
4 4 4 8 10 5 6 4 3 6 6 5 3 2 5 1 4 4 7 9 9 9 8 12 18 18 18 17 15 13 11 10 9 9 8 4 1 5 3 5 7 5 2 2 4 6 7 8 8
5 4 6 7 7 7 6 5 5 6 5 5 4 3 5 3 5 7 7 7 7 7 6 8 13 15 17 16 15 14 12 10 9 8 6 4 1 3 4 4 5 3 2 4 6 8 9 8 8
5 5 4 5 7 8 4 3 3 5 7 4 4 5 5 4 6 8 7 6 6 7 8 6 9 12 13 14 15 14 13 12 10 8 6 4 2 1 3 3 2 1 3 5 7 9 8 8 9
4 3 7 7 7 5 3 3 4 4 4 3 3 4 4 2 9 8 5 5 7 8 7 8 8 9 11 12 13 13 12 12 11 9 7 4 1 0 1 1 2 4 5 6 8 10 11 11 11
5 6 8 6 6 4 4 5 5 6 5 5 5 5 2 2 7 8 7 9 12 13 12 9 10 9 8 9 10 9 9 10 10 8 6 4 2 1 2 3 3 4 5 5 8 12 13 13 12
7 7 4 6 5 5 6 6 4 5 7 7 8 8 4 3 6 8 8 8 10 10 12 12 12 9 7 5 7 7 7 8 8 7 6 5 4 2 2 2 4 4 4 7 11 13 12 11 10
5 5 4 4 3 4 4 5 6 7 9 7 6 7 5 7 9 10 10 9 7 8 9 11 12 11 9 6 5 6 5 5 5 6 7 6 3 3 3 3 5 7 8 10 9 8 8 9 9
6 5 4 6 8 8 9 9 8 10 11 11 10 9 10 10 10 10 9 7 8 10 10 11 11 12 10 8 5 5 5 5 6 7 7 6 4 4 3 5 8 9 9 8 6 5 6 6 7
4 4 5 6 7 6 10 14 11 11 10 10 10 11 12 12 13 10 9 11 10 12 12 12 14 13 11 9 7 6 5 6 7 7 8 9 8 6 5 6 6 7 8 8 7 5 4 4 4
3 5 7 7 7 6 7 15 15 13 11 12 12 12 13 13 12 12 12 11 12 11 10 12 14 13 12 10 9 6 7 8 6 8 10 11 11 9 8 6 5 5 7 8 6 5 5 6 6
2 3 4 5 7 8 8 17 7 10 11 13 12 11 12 14 14 11 12 12 11 9 8 10 11 13 13 10 9 7 8 8 8 10 11 12 12 12 9 6 5 7 9 7 5 5 5 6 7
4 5 5 5 6 6 10 10 4 6 10 13 12 11 11 12 13 12 11 11 9 8 9 10 11 14 14 12 10 9 7 7 8 10 10 12 13 14 11 6 5 9 7 5 5 5 5 5 8
6 6 4 5 3 4 9 13 10 9 9 11 12 11 11 11 15 12 9 8 7 7 9 11 13 14 15 12 11 9 9 7 8 8 10 12 13 15 12 7 8 8 6 6 5 6 5 3 6
1 3 6 5 5 7 12 18 14 11 12 12 13 12 13 13 12 8 8 8 7 7 10 13 15 14 14 12 10 9 8 7 7 7 10 12 14 14 11 6 6 6 7 6 6 5 6 5 5
8 11 11 9 5 8 13 24 19 14 15 15 16 16 14 13 9 7 8 8 8 8 11 14 15 14 13 11 7 5 7 7 7 6 8 11 13 12 11 7 6 6 6 8 8 6 4 4 5
9 9 8 9 9 8 14 19 15 14 17 19 18 16 15 16 14 11 10 10 9 9 11 12 13 13 13 14 11 11 8 6 5 5 5 6 11 13 12 9 6 6 7 6 6 6 5 4 4
10 7 10 11 8 6 7 10 7 9 12 15 15 14 15 16 14 11 12 11 10 9 9 12 13 14 15 16 16 17 10 7 5 5 5 6 10 11 11 10 9 6 6 7 5 5 3 3 3
7 6 9 9 9 10 7 10 10 7 10 11 12 13 15 15 15 15 16 14 9 9 11 12 13 13 15 15 17 16 11 8 7 7 8 7 6 8 10 10 8 6 6 6 6 4 4 2 1
6 3 5 6 7 12 12 11 11 6 10 10 13 12 12 13 13 13 11 10 9 9 11 13 14 13 13 14 15 16 16 15 13 9 8 6 5 5 6 9 8 6 5 5 4 3 3 2 1
8 6 5 6 8 8 8 10 11 9 11 13 15 15 13 10 10 11 13 15 15 15 14 14 16 14 12 14 13 14 16 15 14 11 9 7 5 4 5 5 5 4 5 4 3 3 2 1 2
12 12 8 6 5 5 6 11 9 10 12 12 14 12 9 9 10 13 16 17 17 17 16 15 16 14 12 13 11 11 12 10 9 8 8 7 5 5 5 5 5 5 4 4 3 2 2 2 3
8 12 8 5 4 6 7 9 10 9 10 12 14 13 10 10 13 14 14 13 15 16 15 15 15 13 12 12 12 11 11 11 10 9 7 6 6 6 6 6 5 4 3 3 3 2 3 4 3
7 6 6 9 6 8 9 9 8 9 7 10 12 13 12 11 12 13 13 12 11 11 11 11 13 14 11 11 11 11 10 11 11 10 9 8 7 6 7 6 4 3 3 3 3 3 4 4 4
12 9 8 6 5 6 6 8 7 8 4 9 13 13 11 12 14 14 14 13 14 13 12 12 13 14 13 11 12 13 12 11 11 9 8 8 7 7 6 5 4 3 3 3 3 4 5 5 6
13 14 13 8 7 6 6 10 4 4 5 10 14 11 5 8 10 12 13 14 15 15 13 12 13 14 12 12 13 13 12 11 10 9 8 8 7 6 6 5 4 4 4 4 4 5 6 7 8
Wind_Direction
332 340 47 51 45 38 257 245 234 278 264 240 215 239 219 193 179 204 124 157 156 152 167 182 170 167 164 162 157 156 156 155 151 151 154 146 151 156 155 160 144 109 78 52 34 30 26 22 14
332 1 50 58 92 283 269 254 247 257 278 307 211 180 236 257 271 209 157 180 158 154 163 173 168 164 164 163 160 162 163 163 163 161 167 179 185 172 162 163 161 150 124 76 50 42 31 24 4
352 43 76 83 153 193 237 243 251 290 293 285 13 144 221 244 262 226 200 158 146 151 159 167 167 165 166 165 165 168 169 170 173 175 166 188 206 199 186 175 178 172 157 124 83 49 12 356 342
42 39 60 113 226 221 225 249 297 318 325 309 296 279 262 262 272 232 140 144 148 154 157 166 167 170 169 167 169 172 175 178 180 181 171 154 223 224 212 195 174 160 152 144 99 343 318 322 320
55 77 122 241 243 238 242 256 267 294 292 298 277 277 286 293 17 115 138 146 153 158 162 169 172 175 173 172 173 177 180 183 184 188 189 179 18 332 222 195 155 149 152 191 309 316 317 323 324
58 84 172 232 247 255 257 249 267 268 260 276 198 198 278 325 101 154 152 150 156 161 167 177 182 179 175 175 176 178 182 185 185 189 194 192 30 16 41 155 149 158 194 284 315 324 322 323 322
130 142 211 227 255 260 246 211 214 237 249 249 192 175 283 282 156 157 158 145 157 164 167 177 182 178 175 174 176 178 181 183 183 188 189 182 154 34 45 108 143 171 277 317 320 321 323 323 320
146 146 221 226 236 263 259 221 235 226 243 249 180 182 252 267 147 134 144 149 164 173 176 173 173 171 169 173 177 180 182 182 183 182 164 149 148 76 44 78 118 248 294 312 317 318 322 329 331
110 148 221 214 206 249 287 302 308 310 282 295 240 227 258 53 121 117 127 169 185 192 190 181 175 171 168 170 179 181 184 184 176 165 152 144 141 313 320 290 291 308 315 324 331 345 2 13 15
152 209 226 199 199 239 294 300 297 319 323 316 305 283 338 129 155 160 171 188 198 202 201 195 191 184 172 173 168 169 174 173 166 159 151 142 112 5 295 304 327 338 338 350 19 35 39 41 34
180 219 225 220 226 252 274 273 257 248 264 249 260 288 310 223 193 197 204 203 205 202 202 200 198 189 176 162 152 156 158 159 161 162 161 141 108 79 75 44 23 24 29 46 52 53 45 40 35
205 229 235 251 259 267 260 277 278 231 233 250 264 285 289 249 223 216 218 216 204 203 205 203 200 191 182 163 155 158 157 160 163 169 165 143 119 97 83 77 71 61 63 63 55 51 47 41 35
230 249 246 256 272 271 277 265 260 252 256 270 280 273 262 254 244 244 246 245 212 212 207 196 195 192 181 165 156 158 161 165 166 166 165 150 131 124 106 81 72 65 66 65 56 48 44 33 21
240 263 277 271 265 255 254 265 261 258 256 262 260 257 253 248 241 241 250 253 235 225 217 194 188 184 174 168 164 164 159 156 153 156 156 149 137 123 102 84 72 63 63 65 59 50 45 30 10
268 287 288 247 238 250 248 261 241 249 253 256 251 249 254 253 246 231 233 239 245 236 216 193 184 172 168 165 164 159 156 149 145 142 141 131 121 109 99 89 77 65 65 65 58 43 44 28 9
255 271 276 270 215 216 218 263 246 222 234 252 250 243 247 255 251 237 238 242 247 234 198 183 177 165 158 151 145 141 144 140 131 124 120 115 111 107 101 94 83 72 62 51 45 29 26 17 358
229 231 232 278 243 231 218 262 274 258 244 255 257 249 243 252 259 246 236 236 231 207 175 161 157 155 145 132 122 117 119 115 116 114 113 112 108 106 102 93 81 71 59 42 36 34 28 8 350
208 214 210 219 300 314 270 269 277 294 278 267 267 265 259 254 259 260 239 222 203 178 157 144 147 145 133 123 116 111 101 94 96 101 108 109 106 105 100 89 77 71 62 43 30 26 21 3 342
235 270 273 272 313 309 279 280 276 266 264 262 264 263 261 258 259 262 229 198 177 158 150 148 150 146 139 136 133 128 117 108 96 93 100 105 106 104 98 93 79 72 73 60 39 30 17 1 353
244 260 269 286 266 280 283 282 277 254 252 251 255 256 254 254 256 234 207 196 191 170 157 153 153 152 145 140 131 121 119 107 94 94 93 99 103 102 97 93 90 85 81 61 46 40 28 6 12
233 236 248 263 297 287 293 287 258 243 238 246 247 244 240 242 239 220 201 201 193 179 163 155 151 148 140 132 121 117 109 105 104 101 86 83 96 95 98 99 97 83 79 71 58 47 50 14 359
252 222 228 246 254 264 230 281 254 230 245 249 251 242 234 234 227 210 196 197 193 176 153 147 149 147 145 141 142 143 144 142 142 132 113 92 90 95 98 96 90 82 80 75 62 59 52 53 14
231 217 217 228 236 254 233 263 275 213 245 253 254 244 232 228 216 205 199 193 174 156 152 150 147 150 153 152 151 147 136 123 122 116 112 97 84 87 92 91 87 81 79 76 66 59 59 77 75
205 260 261 237 240 256 222 226 274 209 232 241 248 245 235 225 213 205 182 153 147 151 152 154 153 155 155 149 149 147 141 138 138 134 126 113 98 82 83 88 85 83 79 74 67 61 55 52 39
183 205 239 226 221 247 186 213 257 221 221 224 239 244 236 221 199 179 165 165 164 164 162 161 158 156 152 147 145 146 145 146 147 145 138 130 115 103 94 85 80 76 77 77 66 49 17 343 332
192 191 207 226 233 271 223 234 257 243 240 243 247 252 235 204 189 183 182 176 169 166 164 163 159 153 148 144 136 134 135 135 134 133 131 123 120 123 109 92 85 79 72 63 46 23 330 319 308
187 209 217 251 263 276 262 278 298 267 259 259 259 258 240 210 191 185 178 172 165 163 163 161 153 145 143 137 128 127 127 126 127 121 111 112 118 114 100 92 85 69 52 35 15 346 326 317 293
201 180 183 210 221 241 257 256 249 272 299 302 289 272 245 208 190 177 166 156 150 147 141 141 142 139 132 128 128 126 120 120 121 116 116 113 104 98 98 88 78 55 31 12 359 332 316 313 297
193 203 207 212 201 205 252 256 221 214 268 318 316 292 249 203 185 171 156 143 134 129 131 131 128 126 124 120 118 118 115 113 110 110 112 110 103 100 95 88 71 41 18 360 350 324 312 315 306
203 205 196 209 218 213 238 260 247 240 319 339 330 311 248 173 153 144 138 135 134 131 130 131 129 124 121 119 116 115 114 112 109 109 110 110 106 98 92 81 61 29 6 350 337 319 320 312 304
Height
1510 1510 1509 1509 1513 1524 1521 1512 1505 1503 1498 1496 1496 1495 1494 1495 1497 1499 1493 1493 1495 1496 1496 1498 1500 1502 1504 1506 1507 1508 1508 1509 1509 1509 1511 1512 1513 1514 1514 1515 1516 1516 1516 1515 1514 1514 1516 1517 1518
1509 1509 1510 1509 1520 1530 1523 1509 1503 1499 1496 1494 1494 1494 1493 1492 1491 1491 1491 1493 1495 1496 1497 1497 1500 1502 1504 1506 1507 1508 1508 1509 1509 1509 1511 1512 1514 1515 1515 1515 1516 1517 1516 1515 1515 1515 1515 1516 1517
1508 1509 1509 1512 1521 1525 1515 1504 1501 1497 1494 1493 1492 1493 1493 1492 1491 1491 1492 1493 1494 1496 1497 1499 1500 1502 1504 1506 1507 1508 1509 1509 1509 1509 1511 1513 1514 1515 1516 1516 1517 1517 1517 1516 1516 1516 1516 1516 1517
1508 1509 1508 1515 1517 1513 1506 1501 1500 1497 1494 1493 1492 1492 1491 1491 1491 1492 1492 1493 1494 1496 1498 1500 1501 1503 1504 1506 1507 1508 1509 1509 1509 1509 1511 1513 1515 1516 1516 1517 1517 1517 1518 1518 1517 1517 1517 1517 1517
1507 1507 1512 1516 1512 1506 1502 1499 1499 1498 1496 1494 1493 1491 1490 1491 1490 1491 1493 1494 1495 1496 1498 1500 1501 1503 1504 1506 1507 1508 1509 1509 1509 1509 1511 1513 1515 1516 1517 1517 1517 1517 1518 1518 1517 1517 1517 1516 1516
1506 1507 1517 1517 1508 1503 1500 1498 1498 1497 1494 1493 1493 1491 1489 1490 1490 1491 1493 1495 1496 1496 1498 1500 1501 1503 1504 1506 1507 1508 1509 1510 1509 1510 1512 1514 1515 1516 1517 1517 1517 1518 1518 1518 1518 1517 1516 1515 1515
1505 1509 1512 1510 1506 1502 1498 1496 1496 1494 1492 1492 1491 1491 1489 1490 1490 1490 1492 1494 1495 1496 1497 1499 1501 1502 1504 1505 1507 1508 1509 1510 1511 1511 1512 1514 1514 1515 1516 1517 1517 1518 1518 1518 1517 1516 1516 1515 1515
1501 1506 1507 1507 1505 1501 1496 1494 1494 1493 1491 1491 1491 1490 1490 1490 1489 1489 1491 1493 1494 1495 1497 1499 1500 1501 1503 1505 1506 1508 1509 1510 1511 1512 1513 1513 1514 1515 1516 1517 1517 1518 1517 1517 1517 1517 1516 1515 1515
1499 1506 1506 1504 1502 1498 1494 1493 1492 1492 1491 1490 1490 1490 1490 1490 1489 1489 1489 1491 1492 1493 1495 1498 1499 1500 1502 1504 1506 1507 1509 1510 1511 1511 1512 1512 1513 1514 1515 1516 1517 1517 1517 1516 1516 1516 1515 1514 1513
1497 1501 1497 1495 1494 1494 1493 1493 1492 1491 1490 1490 1489 1489 1489 1488 1488 1488 1488 1489 1489 1491 1493 1496 1498 1499 1501 1502 1504 1506 1508 1509 1510 1511 1511 1512 1513 1514 1514 1515 1515 1516 1516 1516 1515 1515 1514 1512 1511
1493 1494 1492 1491 1490 1491 1491 1491 1490 1490 1489 1489 1488 1488 1487 1487 1486 1486 1487 1488 1488 1490 1491 1494 1496 1498 1499 1501 1503 1505 1507 1508 1509 1510 1511 1511 1512 1513 1514 1515 1514 1515 1515 1515 1514 1514 1512 1510 1509
1490 1489 1489 1488 1489 1489 1489 1488 1488 1486 1486 1487 1487 1487 1486 1485 1485 1485 1485 1486 1487 1488 1489 1491 1494 1496 1497 1500 1502 1504 1506 1507 1508 1509 1510 1511 1511 1512 1514 1514 1513 1514 1514 1513 1512 1511 1510 1508 1507
1488 1487 1486 1486 1486 1486 1486 1485 1484 1482 1484 1484 1484 1484 1484 1484 1483 1483 1484 1484 1485 1486 1487 1489 1491 1493 1495 1497 1500 1503 1505 1506 1507 1508 1509 1510 1511 1512 1513 1513 1513 1513 1512 1511 1510 1509 1507 1505 1504
1485 1484 1484 1483 1483 1483 1482 1479 1479 1473 1478 1478 1479 1479 1480 1480 1480 1480 1481 1481 1482 1482 1484 1485 1487 1490 1492 1495 1497 1501 1503 1505 1505 1506 1508 1509 1510 1511 1511 1511 1512 1512 1510 1509 1508 1506 1504 1502 1501
1483 1483 1482 1480 1480 1479 1479 1472 1469 1470 1473 1472 1472 1474 1475 1475 1475 1475 1476 1477 1478 1478 1479 1481 1482 1485 1488 1492 1495 1498 1501 1503 1504 1505 1507 1508 1509 1510 1510 1510 1510 1509 1508 1507 1506 1504 1501 1499 1497
1482 1483 1484 1478 1475 1474 1480 1468 1464 1464 1465 1464 1465 1466 1468 1468 1469 1470 1471 1472 1473 1473 1474 1475 1477 1480 1484 1488 1491 1495 1498 1500 1502 1504 1505 1506 1508 1508 1508 1509 1509 1508 1506 1505 1503 1501 1498 1496 1494
1482 1483 1483 1479 1472 1471 1472 1465 1460 1458 1459 1458 1458 1459 1460 1461 1462 1463 1465 1466 1467 1467 1468 1470 1472 1476 1480 1483 1488 1492 1494 1497 1499 1502 1503 1504 1506 1507 1507 1507 1507 1506 1504 1502 1500 1497 1494 1493 1492
1479 1478 1475 1474 1470 1470 1469 1463 1460 1457 1456 1454 1453 1453 1453 1454 1455 1457 1459 1459 1460 1461 1463 1465 1468 1472 1476 1479 1484 1488 1491 1493 1496 1499 1501 1503 1504 1505 1505 1506 1505 1504 1502 1499 1497 1495 1492 1491 1489
1475 1476 1477 1473 1470 1471 1466 1459 1456 1454 1452 1449 1447 1446 1446 1447 1449 1451 1452 1453 1454 1455 1457 1460 1464 1468 1471 1474 1480 1484 1487 1491 1494 1497 1499 1501 1502 1503 1504 1504 1503 1501 1499 1496 1494 1493 1492 1489 1487
1476 1476 1475 1474 1470 1469 1464 1453 1448 1446 1444 1442 1440 1439 1440 1442 1442 1444 1447 1448 1449 1450 1452 1456 1460 1464 1467 1472 1478 1482 1485 1489 1492 1495 1497 1500 1501 1502 1502 1501 1500 1498 1496 1494 1493 1492 1490 1488 1485
1475 1476 1476 1477 1473 1469 1466 1446 1439 1433 1432 1431 1430 1430 1431 1434 1435 1437 1440 1442 1444 1446 1448 1451 1455 1460 1464 1470 1475 1479 1483 1486 1489 1492 1495 1498 1499 1500 1500 1499 1498 1496 1494 1493 1492 1490 1489 1488 1486
1473 1471 1472 1473 1477 1476 1467 1454 1431 1427 1425 1423 1421 1421 1421 1424 1427 1429 1432 1435 1438 1441 1445 1449 1453 1457 1462 1467 1472 1476 1479 1482 1486 1490 1493 1496 1497 1498 1497 1497 1496 1494 1492 1491 1490 1489 1488 1486 1484
1471 1468 1469 1469 1472 1472 1466 1462 1428 1425 1422 1419 1415 1413 1412 1414 1417 1421 1425 1428 1433 1437 1441 1445 1449 1454 1460 1465 1469 1474 1477 1481 1485 1488 1492 1494 1495 1496 1496 1495 1494 1492 1491 1490 1489 1488 1486 1484 1482
1466 1468 1468 1467 1469 1463 1454 1460 1430 1425 1417 1413 1408 1405 1404 1405 1408 1412 1417 1422 1428 1434 1438 1441 1445 1451 1457 1462 1466 1471 1475 1478 1482 1486 1489 1491 1493 1494 1494 1493 1491 1490 1489 1488 1487 1486 1484 1482 1480
1464 1470 1469 1463 1459 1452 1445 1443 1423 1416 1408 1404 1401 1397 1397 1399 1402 1405 1409 1415 1422 1428 1433 1437 1442 1448 1454 1459 1463 1468 1473 1477 1481 1485 1488 1489 1491 1492 1491 1490 1489 1488 1487 1485 1484 1483 1481 1479 1477
1457 1460 1463 1461 1455 1452 1441 1431 1416 1406 1400 1396 1393 1391 1391 1393 1396 1400 1404 1409 1415 1422 1428 1434 1439 1445 1451 1456 1460 1466 1471 1476 1481 1485 1487 1488 1489 1489 1488 1488 1487 1485 1484 1482 1481 1479 1478 1476 1473
1452 1453 1451 1453 1451 1450 1440 1425 1411 1399 1396 1392 1389 1387 1387 1389 1391 1394 1399 1405 1411 1418 1425 1431 1437 1443 1449 1454 1458 1464 1469 1474 1479 1483 1484 1486 1486 1486 1486 1485 1484 1483 1481 1479 1477 1476 1474 1472 1469
1446 1447 1450 1449 1446 1444 1435 1426 1412 1400 1396 1392 1387 1383 1380 1382 1385 1388 1393 1400 1408 1416 1424 1432 1437 1442 1448 1453 1457 1462 1468 1473 1477 1480 1482 1483 1484 1484 1483 1482 1481 1480 1478 1476 1474 1472 1470 1467 1464
1441 1443 1441 1440 1441 1445 1438 1415 1394 1392 1391 1388 1382 1377 1374 1375 1378 1383 1389 1396 1405 1415 1423 1430 1435 1440 1446 1451 1456 1462 1466 1471 1475 1477 1479 1480 1481 1481 1480 1479 1478 1477 1474 1472 1469 1468 1465 1463 1460
1428 1429 1432 1435 1434 1433 1430 1407 1387 1387 1385 1383 1379 1374 1370 1371 1375 1381 1387 1394 1403 1412 1421 1429 1434 1439 1445 1451 1456 1461 1465 1469 1472 1475 1476 1477 1478 1477 1477 1476 1475 1473 1470 1468 1466 1463 1461 1458 1454